This demonstration page uses our WeatherBlox Daily Observations layout. Learn more.

Left ArrowRight Arrow

Hourly Observations for September 26, 2019

Temp ( °F °C ) Dew Point ( °F °C ) Humidity (%) Winds ( mph kmh ) Pressure ( in mb ) Visibility ( mi km ) Precip ( " mm )
12:51 am 00:51 Clear 70 21.1 54 12.2 57 57 E 7 11 29.88 1012 10 16 0.00 0.00
1:51 am 01:51 Clear 67 19.4 56 13.3 68 68 E 9 15 29.88 1012 10 16 0.00 0.00
2:51 am 02:51 Clear 68 20 55 12.8 63 63 E 9 15 29.88 1012 10 16 0.00 0.00
3:51 am 03:51 Clear 67 19.4 55 12.8 66 66 E 13 20 29.88 1012 10 16 0.00 0.00
4:51 am 04:51 Clear 67 19.4 57 13.9 71 71 SE 8 13 29.89 1012 10 16 0.00 0.00
5:51 am 05:51 Clear 65 18.3 56 13.3 73 73 Calm 29.91 1013 10 16 0.00 0.00
6:51 am 06:51 Sunny 66 18.9 58 14.4 75 75 ESE 5 7 29.93 1014 10 16 0.00 0.00
7:51 am 07:51 Sunny 70 21.1 60 15.6 71 71 SE 6 9 29.94 1014 10 16 0.00 0.00
8:51 am 08:51 Sunny 74 23.3 59 15 60 60 SSE 7 11 29.95 1014 10 16 0.00 0.00
9:51 am 09:51 Mostly Sunny 77 25 58 14.4 52 52 VRB 3 6 29.95 1014 10 16 0.00 0.00
10:51 am 10:51 Sunny 80 26.7 57 13.9 45 45 SE 6 9 29.93 1013 10 16 0.00 0.00
11:51 am 11:51 Sunny 82 27.8 54 12.2 38 38 VRB 3 6 29.90 1012 10 16 0.00 0.00
12:51 pm 12:51 Sunny 85 29.4 50 10 30 30 VRB 3 6 29.86 1011 10 16 0.00 0.00
1:51 pm 13:51 Sunny 87 30.6 50 10 28 28 VRB 5 7 29.82 1010 10 16 0.00 0.00
2:51 pm 14:51 Sunny 87 30.6 50 10 28 28 VRB 7 11 29.80 1009 10 16 0.00 0.00
3:51 pm 15:51 Sunny 86 30 50 10 29 29 VRB 5 7 29.78 1008 10 16 0.00 0.00
4:51 pm 16:51 Mostly Cloudy 85 29.4 49 9.4 29 29 SW 3 6 29.78 1008 10 16 0.00 0.00
5:51 pm 17:51 Partly Cloudy 83 28.3 51 10.6 33 33 S 8 13 29.78 1009 10 16 0.00 0.00
6:51 pm 18:51 Mostly Cloudy 81 27.2 52 11.1 37 37 S 6 9 29.79 1009 10 16 0.00 0.00
7:51 pm 19:51 Partly Cloudy 77 25 54 12.2 45 45 WSW 5 7 29.80 1009 10 16 0.00 0.00
8:51 pm 20:51 Clear 77 25 53 11.7 43 43 WNW 10 17 29.80 1009 8 13 0.00 0.00
9:51 pm 21:51 Clear 75 23.9 54 12.2 48 48 NW 17 28 29.80 1009 7 11 0.00 0.00
10:51 pm 22:51 Hazy 72 22.2 56 13.3 57 57 WNW 9 15 29.81 1009 6 10 0.00 0.00
11:51 pm 23:51 Hazy 71 21.7 56 13.3 59 59 WNW 10 17 29.80 1009 6 10 0.00 0.00

Powered by AerisWeather